Location: ?????????
(38.4359°N, 23.4063°E)
Time: 20:14:56
(UTC+00:00)

Daily predictions for brighter satellites

Satellite Brightness Start Highest point End
(mag) Time Altitude Azimuth Time Altitude Azimuth Time Altitude Azimuth
Landsat 7 3.8 17:04:06 10° SSE 17:08:46 87° ENE 17:13:30 10° NNW
ATLAS CENTAUR R/B 3.3 17:05:44 10° NNW 17:10:38 48° NE 17:18:11 10° ESE
Cosmos 2360 Rocket 2.5 17:07:06 10° SSW 17:12:44 76° WNW 17:18:24 10° NNE
Cosmos 1898 Rocket 3.8 17:12:35 10° N 17:17:45 50° ENE 17:22:51 10° SE
Cosmos 1459 Rocket 4.5 17:12:57 10° SSW 17:18:57 66° W 17:24:58 10° N
Okean O Rocket 3.6 17:18:10 10° ENE 17:19:19 11° ENE 17:20:30 10° NE
Cosmos 2322 Rocket 3.3 17:16:07 10° SW 17:21:37 50° WNW 17:27:10 10° NNE
USA 306 3.4 17:19:40 10° S 17:21:53 20° SE 17:24:26 10° ENE
Cosmos 1151 Rocket 3.4 17:19:06 10° N 17:23:08 40° ENE 17:27:07 10° SSE
Resurs 01 Rocket 2.9 17:20:05 10° ESE 17:23:26 22° ENE 17:26:49 10° NNE
ACS3 Solar Sail 3.3 17:20:16 10° ESE 17:24:19 18° ENE 17:28:23 10° NNE
Cosmos 1340 2.7 17:21:29 10° SSE 17:24:33 40° E 17:27:38 10° NNE
Meteor PRIRODA 3.8 17:23:39 10° SE 17:26:48 41° ENE 17:29:56 10° N
USA 186 3.4 17:25:33 12° ESE 17:27:20 18° ENE 17:29:34 10° NNE
Cosmos 2333 Rocket 3.0 17:23:43 10° SW 17:29:23 59° WNW 17:35:05 10° NNE
ATLAS 3B R/B 3.0 17:24:45 10° NNW 17:32:42 84° ENE 17:40:20 10° SSE
Cosmos 2219 Rocket 2.2 17:27:59 10° SSW 17:33:40 83° ESE 17:39:22 10° NNE
Helios 1A 2.8 17:31:59 10° NNE 17:36:03 72° ESE 17:40:04 10° S
Meteor 1-5 Rocket 4.2 17:31:13 10° S 17:36:45 84° E 17:42:31 10° N
BlueWalker 3 4.4 17:37:14 10° N 17:38:28 11° NNE 17:39:43 10° NE
SL-08 R/B 3.6 17:35:54 10° N 17:40:49 79° WNW 17:45:43 10° SSW
SAR-Lupe-2 3.7 17:37:18 10° S 17:40:51 76° WSW 17:44:25 10° NNW
USA 229 DEB 4.3 17:34:16 10° NNW 17:41:40 54° NE 17:48:31 14° SE
USA 229 4.3 17:34:26 10° NNW 17:41:49 53° NE 17:48:36 15° SE
CZ-4B R/B 3.3 17:42:22 10° SSE 17:47:05 86° WSW 17:51:52 10° NNW
Timation 2 Rocket 4.0 17:42:20 10° NNW 17:48:39 70° ENE 17:55:13 10° SSE
Cosmos 1766 Rocket 3.8 17:48:07 10° SSE 17:52:12 43° E 17:56:20 10° NNE
SJ-6B 2.7 17:48:36 10° S 17:52:16 79° WSW 17:55:55 10° NNW
Cosmos 1626 2.6 17:49:24 10° NNW 17:52:19 47° W 17:55:12 10° S
Cosmos 2322 3.6 17:48:42 10° S 17:54:16 66° ESE 17:59:52 10° NNE
Cosmos 1844 Rocket 4.1 17:50:10 10° NW 17:55:24 39° WSW 18:00:37 10° S
GEOS 3 Rocket 3.7 17:55:00 12° SSE 17:59:53 80° SW 18:05:07 10° NW
Cosmos 1066 Rocket 4.3 17:56:25 10° N 18:02:13 59° ENE 18:07:17 13° SSE
Cosmos 1400 Rocket 2.7 18:06:17 10° N 18:10:04 56° E 18:11:19 36° SE
CZ-4 R/B 1.4 18:06:31 10° S 18:10:13 71° WSW 18:14:03 10° NNW
COSMOS 2428 2.6 18:07:35 10° SSW 18:13:15 77° ESE 18:18:59 10° NNE
CSL-04 Debris 4.1 18:10:18 18° SSE 18:14:22 67° ENE 18:19:49 10° N
Cosmos 1818 4.1 18:09:38 10° SW 18:15:01 61° NW 18:20:27 10° NNE
Cosmos 1726 3.0 18:12:38 10° SSW 18:15:15 36° W 18:17:54 10° N
Cosmos 1707 3.9 18:12:30 10° NNE 18:14:39 24° NE 18:14:39 24° NE
Cosmos 1937 Rocket 4.0 18:13:28 10° NNW 18:18:41 62° WSW 18:23:44 11° S
Cosmos 1536 3.9 18:20:01 28° NE 18:20:01 28° NE 18:22:16 10° NNE
Cosmos 1513 Rocket 4.3 18:14:30 10° S 18:20:28 65° E 18:26:28 10° NNE
BREEZE M DEB (TANK) 4.5 18:15:06 10° SW 18:20:35 87° SE 18:42:58 10° ENE
Meteor 1-14 Rocket 4.1 18:15:10 10° S 18:20:41 72° E 18:26:12 10° NNE
Cosmos 1464 Rocket 4.1 18:18:42 14° SSE 18:23:57 52° E 18:30:04 10° NNE
Lacrosse 4 Rocket 1.6 18:19:42 10° NNW 18:23:58 52° ENE 18:24:34 47° E
PAYLOAD B 4.5 18:18:30 10° S 18:24:02 71° WSW 18:29:39 10° NNW
Cosmos 1943 Rocket 3.7 18:20:43 10° N 18:24:33 19° NE 18:24:57 19° ENE
USA 59 Rocket 1.3 18:21:29 10° N 18:25:06 29° NE 18:25:31 28° ENE
KORONAS-FOTON 3.9 18:22:07 10° N 18:25:27 51° ENE 18:25:27 51° ENE
Meteor 1-11 Rocket 4.1 18:27:19 38° ESE 18:28:15 41° E 18:33:27 10° NNE
Cosmos 1356 Rocket 4.1 18:24:37 10° N 18:28:04 38° ENE 18:28:04 38° ENE
Terra 3.7 18:30:28 15° NE 18:30:28 15° NE 18:32:11 10° NNE
Cosmos 1328 Rocket 3.4 18:28:14 10° N 18:32:33 85° W 18:34:05 39° S
Meteor 1-4 Rocket 4.3 18:30:36 10° N 18:31:20 16° N 18:31:20 16° N
Cosmos 1674 2.6 18:31:43 10° NNW 18:35:01 65° W 18:35:10 64° WSW
CZ-4B R/B 3.4 18:33:16 19° S 18:37:22 72° WSW 18:42:48 10° NNW
CZ-4B R/B 4.5 18:34:40 11° SSW 18:37:46 31° W 18:41:13 10° NNW
ERS-1 Rocket 4.3 18:39:39 24° NE 18:39:39 24° NE 18:42:52 10° NNE
OAO 2 Rocket 3.8 18:34:21 10° W 18:38:59 43° SSW 18:39:33 41° S
Cosmos 2278 Rocket 2.8 18:35:31 10° N 18:40:46 37° ENE 18:41:07 37° ENE
NOSS 2-1 (C) 4.3 18:37:41 10° NNW 18:41:26 40° NE 18:41:26 40° NE
Cosmos 2034 Rocket 4.1 18:41:54 46° ESE 18:42:42 48° E 18:48:36 10° NNE
CARTOSAT-1 4.4 18:40:59 22° SSW 18:43:26 47° W 18:47:32 10° NNW
SPOT 5 3.3 18:45:10 44° NE 18:45:10 44° NE 18:49:06 10° N
Cosmos 1072 Rocket 4.5 18:40:50 10° S 18:47:14 87° E 18:53:41 10° N
NOSS 0 Rocket 3.9 18:45:27 10° SSW 18:51:41 88° WNW 18:57:58 10° NNE
Okean 3 Rocket 3.7 18:51:02 48° SSW 18:52:13 75° W 18:56:43 10° N
USA 306 3.9 18:51:22 10° WSW 18:54:09 33° NW 18:54:09 33° NW
Okean O Rocket 1.8 18:54:28 63° SW 18:54:57 69° WSW 18:59:23 10° NNW
USA 215 3.1 18:51:12 10° NE 18:57:45 71° SE 19:04:15 10° SW
USA 186 4.3 18:58:07 17° WSW 18:58:56 18° W 19:01:14 10° NW
Resurs 01 Rocket 3.2 18:57:00 18° SSW 18:59:39 32° W 19:03:38 10° NNW
ATLAS CENTAUR R/B 4.3 18:55:02 10° WNW 19:00:39 39° SW 19:05:09 23° S
Aureole 3 Rocket 4.2 19:01:28 42° SSE 19:04:14 68° E 19:10:18 10° NNE
Cosmos 2237 Rocket 2.0 19:04:47 79° SE 19:04:59 81° ESE 19:10:38 10° NNE
MOS 1 Rocket 4.0 19:06:49 46° NNE 19:06:49 46° NNE 19:10:42 10° N
ACS3 Solar Sail 2.0 19:05:10 40° S 19:07:39 74° W 19:14:04 10° NNW
Okean-O 3.3 19:12:12 51° NNW 19:12:12 51° NNW 19:15:33 10° NNW
MetOp-B 4.2 19:17:46 75° N 19:17:46 75° N 19:22:41 10° NNW
BlueWalker 3 4.1 19:13:52 10° NW 19:15:32 22° NNW 19:15:32 22° NNW
NOSS 2-1 (E) 4.3 19:13:20 10° NNW 19:16:32 54° NNW 19:16:32 54° NNW
Cosmos 44 Rocket 4.2 19:13:24 10° NW 19:17:37 39° WSW 19:17:37 39° WSW
USA 267 4.3 19:29:00 30° NE 19:30:06 31° NNE 19:35:43 10° NNW
Cosmos 1980 4.3 19:29:56 20° SW 19:33:44 55° WNW 19:39:19 10° NNE
Cosmos 2369 Rocket 4.4 19:38:14 10° NNE 19:39:53 14° NNE 19:39:53 14° NNE
Lacrosse 4 Rocket 4.4 19:59:37 10° WNW 20:00:26 12° W 20:00:26 12° W
Terra 4.0 20:09:10 23° NNW 20:09:10 23° NNW 20:11:01 10° NNW
Cosmos 1943 Rocket 3.5 20:03:16 10° NNW 20:06:28 35° NW 20:06:28 35° NW
USA 59 Rocket 2.7 20:10:30 10° WNW 20:11:54 19° WNW 20:11:54 19° WNW
Cosmos 2278 Rocket 4.1 20:19:52 10° NW 20:22:58 24° WNW 20:22:58 24° WNW
USA 215 4.5 20:34:33 10° NNE 20:40:25 37° NNW 20:46:18 10° W
